www.pogodaiklimat.ru

Погода и климат >> Архив погоды >> Италия >> Казале-Монферрато


ПОГОДА в Казале-Монферрато

  • Прогноз погоды в Казале-Монферрато
  • Монитор погоды в Казале-Монферрато

АРХИВ ПОГОДЫ в Казале-Монферрато

Время (UTC), дата Ветер
(напр.,м/с)
 
Видим.   Явления Облачность Т
(С)
Тd
(С)
f
(%)
Тe
(С)
Тes
(С)
Комфортность P
(гПа)
Po
(гПа)
Тmin
(С)
Tmax
(С)
R
(мм)
R24
(мм)
S
(см)
13 14.08 СВ 3 н/о н/о +27.2 +16.4 52
14 14.08 СВ 3 н/о н/о +27.6 +17.4 54
15 14.08 СВ 2 н/о н/о +27.8 +17.0 52
16 14.08 С 1 н/о н/о +27.9 +15.8 48
17 14.08 С 2 н/о н/о +27.5 +15.5 48
18 14.08 СЗ 1 н/о н/о +26.9 +14.9 48 +28.1
19 14.08 З 1 н/о н/о +23.0 +15.0 61
20 14.08 З 1 н/о н/о +20.5 +15.4 73
21 14.08 З 1 н/о н/о +19.2 +15.4 79
22 14.08 З 2 н/о н/о +18.7 +15.5 82 +20 +20 1015.4 1001.9
23 14.08 З 1 н/о н/о +18.0 +15.6 86 +20 +20 1015.9 1002.3
00 15.08 З 1 н/о н/о +18.0 +16.3 90 +19 +19 1016.2 1002.6
01 15.08 СЗ 1 н/о н/о +17.8 +15.5 86 +19 +19 1016.4 1002.8
02 15.08 СЗ 2 н/о н/о +17.8 +15.5 86 +18 +18 1016.5 1002.9
03 15.08 СЗ 2 н/о н/о +17.7 +15.8 89 +18 +18 1016.3 1002.7
04 15.08 СЗ 2 н/о н/о +17.5 +15.6 89 +18 +18 1016.4 1002.8
05 15.08 С 2 н/о н/о +17.7 +15.8 89 +18 +18 1016.5 1002.9
06 15.08 С 2 н/о н/о +18.6 +16.5 88 +20 +20 1016.6 1003.0 +16.8 503
07 15.08 С 1 н/о н/о +19.6 +17.1 85 +23 +23 комфорт 1017.0 1003.5
08 15.08 С 2 н/о н/о +19.9 +17.6 87 +23 +23 комфорт 1017.0 1003.5
09 15.08 СВ 2 н/о н/о +22.3 +19.2 83 +28 +28 душно 1016.6 1003.2
10 15.08 В 2 н/о н/о +24.0 +19.7 77 +29 +29 душно 1016.1 1002.8
11 15.08 ЮВ 1 н/о н/о +24.9 +19.9 74 +30 +30 душно 1015.8 1002.5
12 15.08 СВ 3 н/о н/о +25.5 +20.0 72
13 15.08 ЮВ 2 н/о н/о +26.3 +18.9 64
14 15.08 ЮВ 3 н/о н/о +27.5 +18.7 59
15 15.08 ЮВ 2 н/о н/о +28.0 +17.5 53
16 15.08 ЮВ 2 н/о н/о +28.0 +17.2 52
17 15.08 С 2 н/о н/о +27.2 +17.3 55
18 15.08 СЗ 2 н/о н/о +26.4 +17.7 59 +28.6
19 15.08 З 1 н/о н/о +24.4 +17.1 64
20 15.08 ЮЗ 1 н/о н/о +22.2 +17.7 76
21 15.08 ЮЗ 1 н/о н/о +20.5 +17.4 82
22 15.08 З 1 н/о н/о +19.9 +17.6 87
23 15.08 З 1 н/о н/о +19.3 +17.4 89 +22 +22 комфорт 1014.1 1000.6
00 16.08 штиль 0 н/о н/о +18.2 +16.5 90 +19 +19 1014.2 1000.6
01 16.08 СЗ 1 н/о н/о +18.3 +16.7 90 +20 +20 1014.6 1001.1
02 16.08 СЗ 1 н/о н/о +18.7 +17.1 90 +21 +21 комфорт 1015.0 1001.5
03 16.08 СЗ 1 н/о н/о +19.0 +17.3 90 +22 +22 комфорт 1015.3 1001.8
04 16.08 С 2 н/о н/о +19.4 +17.3 88 +22 +22 комфорт 1015.7 1002.2
05 16.08 СЗ 3 н/о н/о +18.9 +17.2 90 +21 +21 комфорт 1016.2 1002.7
06 16.08 С 3 н/о н/о +18.7 +17.0 90 +20 +20 1017.0 1003.4 +17.7 406
07 16.08 С 2 н/о н/о +19.3 +17.7 90 +22 +22 комфорт 1017.3 1003.8
08 16.08 С 3 н/о н/о +20.5 +18.6 89 +25 +25 комфорт 1017.6 1004.1
09 16.08 С 3 н/о н/о +21.7 +18.2 80 +26 +26 душно 1017.6 1004.2
10 16.08 СВ 2 н/о н/о +23.5 +18.3 73 +28 +28 душно 1017.4 1004.0
11 16.08 СВ 3 н/о н/о +24.8 +19.1 71 +30 +30 душно 1017.1 1003.8
12 16.08 СВ 2 н/о н/о +25.9 +19.5 68
13 16.08 В 2 н/о н/о +26.7 +19.8 66
14 16.08 С 1 н/о н/о +27.2 +20.5 67
15 16.08 ЮВ 2 н/о н/о +27.8 +20.1 63
16 16.08 СВ 2 н/о н/о +27.5 +19.5 62
17 16.08 СВ 2 н/о н/о +27.0 +19.3 63
18 16.08 С 2 н/о н/о +26.1 +18.7 64 +28.1
19 16.08 СЗ 1 н/о н/о +24.3 +18.4 70
20 16.08 штиль 0 н/о н/о +22.3 +18.2 78
21 16.08 З 1 н/о н/о +21.6 +18.9 85
22 16.08 З 1 н/о н/о +20.7 +18.4 87
23 16.08 С 2 н/о н/о +20.6 +18.8 89 +25 +25 комфорт 1016.7 1003.3
00 17.08 С 2 н/о н/о +21.4 +18.9 86 +26 +26 душно 1016.7 1003.3
01 17.08 СЗ 2 н/о н/о +21.1 +18.2 84 +25 +25 комфорт 1016.6 1003.1
02 17.08 СЗ 1 н/о н/о +20.3 +17.4 83 +25 +25 комфорт 1016.3 1002.8
03 17.08 С 2 н/о н/о +19.9 +17.2 84 +23 +23 комфорт 1016.4 1002.9
04 17.08 СЗ 2 н/о н/о +19.7 +17.4 87 +23 +23 комфорт 1016.7 1003.2
05 17.08 СЗ 1 н/о н/о +19.6 +17.5 88 +23 +23 комфорт 1016.8 1003.3
06 17.08 СЗ 2 н/о н/о +20.1 +17.8 87 +24 +24 комфорт 1016.9 1003.4 +19.6 303
07 17.08 С 2 н/о н/о +20.5 +18.7 89 +25 +25 комфорт 1017.4 1003.9
08 17.08 С 2 н/о н/о +22.5 +19.2 82 +28 +28 душно 1017.4 1004.0
09 17.08 С 2 н/о н/о +23.4 +19.5 79 +30 +30 очень
душно
1017.4 1004.0
10 17.08 СВ 2 н/о н/о +25.1 +20.1 74 +31 +31 очень
душно
1017.1 1003.8
11 17.08 С 2 н/о н/о +26.4 +19.5 66
12 17.08 СВ 2 н/о н/о +27.1 +19.9 65
13 17.08 З 1 н/о н/о +28.1 +19.3 59
14 17.08 СВ 3 н/о н/о +27.8 +18.7 58
15 17.08 СВ 3 н/о н/о +28.0 +20.0 62
16 17.08 СВ 3 н/о н/о +27.7 +19.2 60
17 17.08 СВ 2 н/о н/о +27.5 +20.0 64
18 17.08 СВ 1 н/о н/о +25.7 +20.2 72 +28.6
19 17.08 ЮЗ 1 н/о н/о +24.5 +19.9 76
20 17.08 З 1 н/о н/о +23.5 +19.8 80
21 17.08 штиль 0 н/о н/о +22.5 +19.6 84
22 17.08 З 2 н/о н/о +21.7 +18.8 84
23 17.08 ЮЗ 1 н/о н/о +21.3 +18.8 86 +26 +26 душно 1015.9 1002.5
00 18.08 штиль 0 н/о н/о +19.8 +17.7 88 +22 +22 комфорт 1015.8 1002.3
01 18.08 С 1 н/о н/о +19.2 +17.5 90 +23 +23 комфорт 1015.7 1002.2
02 18.08 штиль 0 н/о н/о +18.8 +17.2 90 +20 +20 1015.6 1002.1
03 18.08 З 1 н/о н/о +18.5 +17.1 92 +20 +20 1015.5 1001.9
04 18.08 штиль 0 н/о н/о +18.1 +16.7 92 +18 +18 1015.6 1002.0
05 18.08 З 1 н/о н/о +17.7 +16.3 92 +19 +19 1015.7 1002.1
06 18.08 штиль 0 н/о н/о +19.1 +17.9 93 +21 +21 комфорт 1015.8 1002.3 +17.2 0
07 18.08 штиль 0 н/о н/о +22.3 +20.9 92 +29 +29 очень
душно
1016.0 1002.6
08 18.08 СЗ 1 н/о н/о +24.0 +22.2 90 +31 +31 очень
душно
1015.9 1002.6
09 18.08 СЗ 1 н/о н/о +26.5 +22.7 80 +35 +35 очень
душно
1015.7 1002.5
10 18.08 СВ 2 н/о н/о +27.1 +22.7 77
11 18.08 В 2 н/о н/о +28.1 +20.8 65
12 18.08 СВ 2 н/о н/о +28.0 +21.0 66
13 18.08 С 2 н/о н/о +27.9 +21.4 68
14 18.08 СВ 2 н/о н/о +28.5 +21.2 65
15 18.08 СВ 2 н/о н/о +28.3 +22.3 70
16 18.08 СВ 2 н/о н/о +28.1 +21.6 68
17 18.08 ЮВ 1 н/о н/о +27.8 +21.5 69
18 18.08 Ю 3 н/о н/о +27.0 +21.5 72 +29.1
19 18.08 ЮЗ 2 н/о н/о +26.0 +20.7 73
20 18.08 ЮЗ 2 н/о н/о +24.9 +19.9 74
21 18.08 Ю 2 н/о н/о +23.9 +18.9 74
22 18.08 ЮЗ 2 н/о н/о +23.4 +19.1 77
23 18.08 З 1 н/о н/о +23.2 +19.5 80 +30 +30 очень
душно
1015.3 1002.0
00 19.08 З 1 н/о н/о +22.2 +19.1 83 +28 +28 душно 1015.3 1001.9
01 19.08 ЮЗ 1 н/о н/о +21.5 +19.2 87 +26 +26 душно 1015.0 1001.6
02 19.08 штиль 0 н/о н/о +20.4 +18.6 89 +24 +24 комфорт 1015.1 1001.6
03 19.08 штиль 0 н/о н/о +19.5 +17.9 90 +22 +22 комфорт 1015.0 1001.5
04 19.08 штиль 0 н/о н/о +18.2 +16.8 92 +19 +19 1014.7 1001.1
05 19.08 штиль 0 н/о н/о +18.7 +17.3 92 +20 +20 1015.1 1001.6
06 19.08 Ю 1 н/о н/о +19.8 +18.6 93 +24 +24 комфорт 1015.3 1001.8 +18.1 601
07 19.08 Ю 1 н/о н/о +22.4 +21.0 92 +29 +29 очень
душно
1015.8 1002.4
08 19.08 СЗ 1 н/о н/о +24.1 +22.1 89 +31 +31 очень
душно
1016.3 1003.0
09 19.08 В 2 н/о н/о +24.7 +22.7 89 +33 +33 очень
душно
1016.1 1002.8
10 19.08 СВ 2 н/о н/о +26.8 +22.8 79 +36 +36 очень
душно
1016.2 1003.0
11 19.08 З 2 н/о н/о +28.6 +23.0 72
12 19.08 В 2 н/о н/о +27.9 +23.4 77
13 19.08 ЮВ 1 н/о н/о +29.9 +23.8 70
14 19.08 С 2 н/о н/о +29.2 +23.4 71
15 19.08 С 3 н/о н/о +28.9 +23.7 74
16 19.08 СВ 2 н/о н/о +28.4 +23.5 75
17 19.08 СВ 2 н/о н/о +25.4 +23.0 87
18 19.08 СЗ 2 н/о н/о +25.5 +23.9 91 +30.2 5
19 19.08 Ю 2 н/о н/о +24.7 +23.3 92
20 19.08 С 2 н/о н/о +24.2 +22.8 92
21 19.08 З 1 н/о н/о +23.7 +22.3 92
22 19.08 З 1 н/о н/о +23.4 +22.1 92
23 19.08 З 1 н/о н/о +23.2 +21.9 92 +31 +31 очень
душно
1017.1 1003.7
00 20.08 СЗ 2 н/о н/о +22.8 +21.6 93 +30 +30 очень
душно
1017.1 1003.7
01 20.08 СЗ 1 н/о н/о +22.3 +21.1 93 +29 +29 очень
душно
1016.6 1003.2
02 20.08 СЗ 1 н/о н/о +22.1 +20.9 93 +29 +29 очень
душно
1016.7 1003.3
03 20.08 З 1 н/о н/о +21.5 +20.3 93 +27 +27 душно 1016.8 1003.4
04 20.08 СЗ 2 н/о н/о +21.4 +20.2 93 +27 +27 душно 1016.6 1003.2
05 20.08 СЗ 1 н/о н/о +21.5 +20.3 93 +27 +27 душно 1017.0 1003.6
06 20.08 С 1 н/о н/о +21.7 +20.5 93 +27 +27 душно 1017.2 1003.8 +21.1 602
07 20.08 С 2 н/о н/о +21.9 +20.5 92 +28 +28 душно 1017.5 1004.1
08 20.08 СЗ 1 н/о н/о +22.6 +21.2 92 +30 +30 очень
душно
1017.7 1004.3
09 20.08 СЗ 1 н/о н/о +24.1 +22.5 91 +32 +32 очень
душно
1017.9 1004.6
10 20.08 С 1 н/о н/о +24.9 +23.1 90 +33 +33 очень
душно
1017.9 1004.6
11 20.08 СВ 1 н/о н/о +27.4 +24.4 84 +39 +39 очень
душно
1017.4 1004.2
12 20.08 З 2 н/о н/о +27.1 +23.7 82
13 20.08 С 2 н/о н/о +27.0 +23.4 81
14 20.08 СЗ 2 н/о н/о +28.0 +24.4 81
15 20.08 С 3 н/о н/о +27.5 +23.7 80
16 20.08 С 3 н/о н/о +27.3 +23.5 80
17 20.08 С 3 н/о н/о +26.2 +23.4 85
18 20.08 З 7 н/о н/о +21.4 +19.6 89 +28.2 13
19 20.08 З 1 н/о н/о +20.4 +19.2 93
20 20.08 З 1 н/о н/о +20.1 +18.9 93
21 20.08 СЗ 2 н/о н/о +21.7 +20.6 93 +27 +27 душно 1017.3 1003.9
22 20.08 З 1 н/о н/о +21.2 +20.0 93 +26 +26 душно 1017.8 1004.3
23 20.08 СЗ 1 н/о н/о +21.6 +20.4 93 +27 +27 душно 1017.6 1004.2
00 21.08 З 1 н/о н/о +20.7 +19.5 93 +27 +27 душно 1017.7 1004.2
01 21.08 З 2 н/о н/о +20.1 +18.9 93 +24 +24 комфорт 1017.6 1004.1
02 21.08 штиль 0 н/о н/о +19.3 +18.1 93 +21 +21 комфорт 1017.9 1004.3
03 21.08 З 2 н/о н/о +19.0 +18.0 94 +21 +21 комфорт 1018.0 1004.4
04 21.08 З 1 н/о н/о +18.9 +17.7 93 +21 +21 комфорт 1018.0 1004.4
05 21.08 штиль 0 н/о н/о +19.2 +17.6 90 +21 +21 комфорт 1018.5 1004.9
06 21.08 З 1 н/о н/о +18.9 +17.7 93 +22 +22 комфорт 1019.0 1005.4 +18.4 601
07 21.08 ЮЗ 1 н/о н/о +21.0 +19.8 93 +27 +27 душно 1019.2 1005.7
08 21.08 СЗ 2 н/о н/о +23.4 +21.4 89 +32 +32 очень
душно
1019.2 1005.8
09 21.08 СЗ 2 н/о н/о +24.8 +23.0 90 +33 +33 очень
душно
1019.2 1005.9
10 21.08 СЗ 3 н/о н/о +26.2 +22.8 82 +35 +35 очень
душно
1019.1 1005.8
11 21.08 СЗ 3 н/о н/о +27.7 +21.2 68
12 21.08 С 2 н/о н/о +28.5 +21.7 67
13 21.08 С 2 н/о н/о +28.7 +22.2 68

 

Местоположение метеостанции Казале-Монферрато (Италия): широта 45.13 долгота 8.45 высота над уровнем моря 119 м.

В архиве по умолчанию представлена погода в Казале-Монферрато за последнюю неделю. Архивные данные за месяц целиком и за предыдущие месяцы, начиная с января 2011 года, Вы можете получить, выбрав интересующий диапазон дат из раскрывающегося списка и нажав кнопку "Ввод!".


*Определитесь, кто Вы:
робот инопланетянин человек

Внимание! Время в таблицах - всемирное. Для получения местного времени необходимо прибавить поправку, которая равна 1 ч.

Смотрите также архив погоды в соседних городах и на ближайших метеорологических станциях:

Погода в Новара (Италия) (47 км)
Погода в Турине Брик Делла Крос (Италия) (58 км)
Погода в Аэропорту Мальпенса (Италия) (59 км)
Погода в Турине (Италия) (64 км)
Погода в Турине Венария (Италия) (65 км)
Погода в Милане (Италия) (73 км)
Погода на Пассо-деи-Джиови (Италия) (75 км)
Погода в Генуе (Италия) (85 км)
Погода в Стабио (Швейцария) (88 км)
Погода в Мондови (Италия) (97 км)

Пояснения к столбцам:

Ветер - указаны скорость ветра в м/с - средняя за 10 мин, порывы в срок и между сроками (в фигурных скобках) и направление, откуда дует ветер: С - северный, СВ - северо-восточный, В - восточный, ЮВ - юго-восточный, Ю - южный, ЮЗ - юго-западный, З - западный, СЗ - северо-западный.
Видимость - горизонтальная дальность видимости в метрах или километрах. При видимости от 1 до 10 км при отсутствии осадков обычно наблюдается дымка, при ухудшении видимости до 1 км и менее - туман. В сухую погоду видимость может ухудшаться дымом, пылью или мглою.
Явления - указаны атмосферные явления, наблюдавшиеся в срок или в последний час перед сроком; фигурными скобками обозначены явления, наблюдавшиеся между сроками (за 1-3 часа до срока); квадратными скобками обозначены град или гололедные отложения с указанием их диаметра в мм.
Облачность - указаны через наклонную черту общая и нижняя облачность в баллах и высота нижней границы облаков в метрах; квадратными скобками обозначены формы облаков: Ci - перистые, Cs - перисто-слоистые, Cc - перисто-кучевые, Ac - высококучевые, As - высокослоистые, Sc - слоисто-кучевые, Ns - слоисто-дождевые, Cu - кучевые, Cb - кучево-дождевые. Подробнее классификацию облаков см. в Атласе облаков (PDF).
T - Температура воздуха - температура, измеренная на высоте 2 м над землей.
Td - Температура точки росы - температура, при понижении до которой содержащийся в воздухе водяной пар достигнет насыщения.
f - Относительная влажность воздуха - влажноcть воздуха, измеренная на высоте 2 м над землей.
Te - Эффективная температура - температура, которую ощущает одетый по сезону человек в тени. Характеристика душности погоды. При расчете учитывается влияние влажности воздуха и скорости ветра на теплоощущения человека.
Tes - Эффективная температура на солнце - температура, которую ощущает человек, с поправкой на солнечный нагрев. Характеристика знойности погоды. Зависит от высоты солнца над горизонтом, облачности и скорости ветра. Ночью, в пасмурную погоду, а также при ветре 12 м/с и более поправка равна нулю.
P - Атмосферное давление - приведенное к уровню моря атмосферное давление.
Po - Атмосферное давление - измеренное на уровне метеостанции атмосферное давление.
Tmin - Минимальная температура - минимум температуры воздуха на высоте 2 м над землей.
Tmax - Максимальная температура - максимум температуры воздуха на высоте 2 м над землей.
R - Количество осадков - Количество выпавших осадков за период времени, мм. При наведении курсора мыши на число - период времени, за который выпало указанное количество осадков.
R24 - Количество осадков - Количество выпавших осадков за 24 часа, мм.
S - Снежный покров - Высота снежного покрова, см. При наведении курсора мыши на число - состояние снежного покрова и степень покрытия местности в баллах.